Location: *
(29.1167°S, 130.0000°E)
Time: 08:01:27
(UTC+00:00)

Cosmos 1908 - Pass Details

Date: 21 July 2019
Orbit: 512 x 532 km, 82.5° (Epoch: 21 August)

Event Time Altitude Azimuth Distance (km) Brightness Sun altitude
Rises 09:07:25 0° 5° (N) 2,621 7.0 -5.9°
Reaches altitude 10° 09:09:33 10° 9° (N) 1,746 6.0 -6.3°
Maximum altitude 09:13:18 54° 86° (E) 646 3.4 -7.1°
Drops below altitude 10° 09:17:07 10° 164° (SSE) 1,783 5.6 -7.9°
Sets 09:19:19 0° 168° (SSE) 2,684 6.5 -8.3°
